Flag for U.S.A. Weather past 2 weeks in Tampa, Florida, U.S.A.

Now
75 °F

Overcast.


Feels Like: 76 °F
Forecast: 65 / 80 °F
Wind: 9 mph from Southeast

Location: Tampa International Airport

Current Time: Mar 1, 2015 at 11:58:28 AM

Latest Report: Mar 1, 2015 at 10:53 AM


Visibility: 10 mi

Pressure: 30.36 "Hg

Humidity: 76%

Dew point: 67 °F

Location of TampaLocation

Historic Weather in Tampa — Graph

°F

Tampa temperature yesterday

Maximum temperature yesterday: 67 °F (at 3:53 PM)
Minimum temperature yesterday: 56 °F (at 12:53 AM)
Average temperature yesterday: 62 °F

Past Weeks' High & Low Weather Summary

 TemperatureHumidityPressure
High77 °F (Feb 22, 1:53 PM)100% (Feb 25, 11:53 PM)30.45 "Hg (Feb 25, 11:53 PM)
Low34 °F (Feb 20, 6:53 AM)19% (Feb 20, 2:53 PM)29.70 "Hg (Feb 26, 2:53 AM)
Average61 °F70%30.14 "Hg
* Reported Feb 14 9:53 AM — Mar 1 9:53 AM, Tampa, Weather by CustomWeather, © 2015

Note: Actual official high and low records may vary slightly from our data, if they occured in-between our weather recording intervals... More about our weather records

Advertising

Tampa weather history for previous 24 hours

 ConditionsComfort  
Time TempWeatherWind HumidityBarometerVisibility
9:53 AM
Sun, Mar 1
72 °FLow clouds.5 mph84%30.37 "Hg10 mi
8:53 AM70 °FBroken clouds.6 mph87%30.36 "Hg10 mi
7:53 AM67 °FOvercast.7 mph90%30.34 "Hg3 mi
7:04 AM67 °FMore clouds than sun.7 mph90%30.34 "Hg3 mi
6:53 AM67 °FMostly cloudy.5 mph90%30.33 "Hg9 mi
5:53 AM66 °FLow clouds.6 mph90%30.31 "Hg10 mi
4:53 AM66 °FPassing clouds.7 mph90%30.30 "Hg8 mi
3:53 AM66 °FMostly cloudy.6 mph90%30.30 "Hg10 mi
2:53 AM66 °FPassing clouds.5 mph90%30.29 "Hg10 mi
1:53 AM66 °FPartly cloudy.5 mph90%30.32 "Hg10 mi
12:53 AM67 °FPartly cloudy.6 mph90%30.32 "Hg10 mi
11:53 PM
Sat, Feb 28
67 °FMostly cloudy.7 mph90%30.33 "Hg10 mi
10:53 PM67 °FMostly cloudy.8 mph90%30.34 "Hg10 mi
9:53 PM67 °FMostly cloudy.7 mph90%30.35 "Hg10 mi
8:58 PM67 °FLight rain. Mostly cloudy.7 mph90%30.35 "Hg8 mi
7:53 PM66 °FLight rain. Fog.7 mph90%30.32 "Hg5 mi
6:53 PM66 °FOvercast.6 mph90%30.30 "Hg10 mi
5:53 PM67 °FMore clouds than sun.8 mph87%30.28 "Hg10 mi
4:53 PM67 °FMostly cloudy.8 mph90%30.27 "Hg10 mi
3:53 PM67 °FLight rain. Fog.7 mph90%30.27 "Hg5 mi
2:53 PM66 °FLight rain. Fog.5 mph90%30.28 "Hg2 mi
1:53 PM65 °FHeavy rain. Fog.7 mph91%30.30 "Hg1 mi
12:59 PM64 °FRain. Fog.12 mph94%30.30 "Hg1 mi
11:53 AM63 °FHeavy rain. Fog.7 mph93%30.34 "Hg1 mi
Weather by CustomWeather, © 2015

See weather overviewHow to use our weather pages